Location: C�an Torras
(41.5052°N, 1.9280°E)
Time: 17:53:49
(UTC+00:00)

NOSS 3-1 (C) - Pass Details

Date: 20 January 2021
Orbit: 723 x 1485 km, 63.3° (Epoch: 02 March)

Event Time Altitude Azimuth Distance (km) Brightness Sun altitude
Rises 19:23:37 0° 325° (NW) 3,957 7.1 -27.9°
Reaches altitude 10° 19:26:10 10° 328° (NNW) 3,097 6.4 -28.3°
Maximum altitude 19:33:47 72° 53° (NE) 1,387 4.0 -29.8°
Enters shadow 19:34:45 66° 96° (E) 1,449 4.0 -29.9°
